パンスターズ彗星

365P/PanSTARRS (2012)

English version
Home page
Updated on March 14, 2018

---------------------------------------------------------------------

・ プロフィール

符号 365P/2011 WG113
発見日 2011年11月24日
発見光度 21.3等
発見者 Pan-STARRS 1 telescope (Haleakala)

・ 軌道要素

Epoch 2012 June 2.0 TT = JDT 2456080.5
T 2012 June 2.37744 TT                                  MPCW
q   1.3606682            (2000.0)            P               Q
n   0.17328424     Peri.   66.25738     -0.88359474     -0.43602694
a   3.1863734      Node    87.51474     +0.34272400     -0.85062237
e   0.5729728      Incl.    9.83827     +0.31906204     -0.29380622
P   5.69
From 169 observations 2011 Nov. 24-2018 Feb. 26, mean residual 0".5.

・ 光度変化

        m1 = 17.0 + 5 logΔ + 10.0 log r

---------------------------------------------------------------------

軌道要素はM.P.E.C. 2018-D88に掲載されたものです。
光度グラフはComet for Windowsで作成したものです。

---------------------------------------------------------------------

Copyright(C) Seiichi Yoshida (comet@aerith.net). All rights reserved.